Location: El Mouella
(16.4949°N, 9.1594°W)
Time: 02:43:32
(UTC+00:00)

H-2A R/B - Pass Details

Date: 25 September 2020
Orbit: 734 x 836 km, 98.2° (Epoch: 20 October)

Event Time Altitude Azimuth Distance (km) Brightness Sun altitude
Exits shadow 18:51:26 - 113° (ESE) 2,703 4.2 -6.0°
Reaches altitude 10° 18:53:42 10° 91° (E) 2,251 3.7 -6.5°
Maximum altitude 18:55:22 12° 71° (ENE) 2,146 3.7 -6.9°
Drops below altitude 10° 18:57:02 10° 52° (NE) 2,268 4.0 -7.3°
Sets 19:00:59 0° 20° (NNE) 3,216 5.0 -8.3°
